Lid_Strength_Index
4 4 4 5 5 6 8 9 10 12 11 10 9 9 9 10 10 10 10 10 11 13
5 4 4 5 5 6 6 7 9 12 13 12 12 11 10 11 11 11 11 11 12 13
5 5 5 5 6 7 7 9 11 13 13 14 13 13 12 13 13 13 13 13 14 14
6 5 6 6 6 8 9 12 13 15 15 15 15 14 13 14 14 14 15 14 15 15
7 7 7 7 8 9 12 13 14 15 15 16 15 15 15 15 15 15 16 15 16 16
7 8 8 9 10 12 13 14 15 16 16 17 16 16 16 16 16 15 16 16 16 17
9 9 10 11 12 14 15 16 16 16 17 17 17 17 17 17 17 17 17 16 16 17
9 9 10 12 14 14 15 16 16 17 17 17 17 17 17 17 17 17 17 17 16 17
10 12 12 13 14 15 16 16 17 18 18 18 17 15 15 16 17 17 17 17 17 17
12 13 13 14 15 15 16 17 17 17 17 17 17 15 14 15 16 17 17 17 17 17
13 14 14 14 15 15 16 16 17 16 16 17 17 14 14 15 16 16 16 16 17 17
13 14 14 15 15 15 16 16 16 16 16 17 17 14 13 15 16 16 16 16 16 16
13 14 14 14 14 14 15 15 16 16 16 16 17 13 13 15 16 16 16 16 16 15
13 14 14 14 14 15 15 16 16 17 16 16 15 14 12 13 15 15 16 16 16 16